Windsor, CA

4:48 PM PST on January 17, 2017 (GMT -0800)
Sonoma County

Weather History for KSTS - October, 2010

Change the Weather History Date:

Sunday, October 17, 2010

  Actual Average Record
Temperature  
Mean Temperature 53 °F 61 °F  
Max Temperature 57 °F 76 °F 92 °F (2012)
Min Temperature 49 °F 45 °F 39 °F (1998)
Degree Days  
Heating Degree Days 12    
Month to date heating degree days 48  
Since 1 July heating degree days 133  
Cooling Degree Days 0    
Month to date cooling degree days 42  
Year to date cooling degree days 333  
Growing Degree Days 2 (Base 50)    
Moisture  
Dew Point 49 °F    
Average Humidity 89    
Maximum Humidity 100    
Minimum Humidity 77    
Precipitation  
Precipitation 0.28 in 0.07 in 0.34 in (2004)
Month to date precipitation 0.28 0.71  
Year to date precipitation 29.71 23.24  
Since 1 July precipitation 0.42  
Sea Level Pressure  
Sea Level Pressure 30.03 in    
Wind  
Wind Speed 2 mph (SSW)    
Max Wind Speed 12 mph    
Max Gust Speed 13 mph    
Visibility 4 miles    
Events Fog , Rain    
T = Trace of Precipitation, MM = Missing Value Source: NWS Daily Summary

Daily Weather History Graph

Daily Weather History Graph

Search for Another Location

Airport or City:

Trip Planner

Search our weather history database for the weather conditions in past years. The results will help you decide how hot, cold, wet, or windy it might be!

Date:

Astronomy

Oct. 17, 2010 Rise Set
Actual Time 7:22 AM PDT 6:30 PM PDT
Civil Twilight 6:55 AM PDT 6:56 PM PDT
Nautical Twilight 6:24 AM PDT 7:27 PM PDT
Astronomical Twilight 5:54 AM PDT 7:58 PM PDT
Moon 3:48 PM PDT (10/17) 2:22 AM PDT (10/17)
Length of Visible Light 12h 01m
Length of Day
11h 07m
Waxing Gibbous, 76% of the Moon is Illuminated
Oct 17
Waxing Gibbous
Oct 22
Full
Oct 30
Last Quarter
Nov 5
New
Nov 13
First Quarter

Hourly Weather History & Observations

Time (PDT) Temp. Dew Point Humidity Pressure Visibility Wind Dir Wind Speed Gust Speed Precip Events Conditions
12:20 AM 50.0 °F 48.2 °F 94% 30.03 in 2.5 mi Calm Calm - N/A   Overcast
12:40 AM 50.0 °F 48.2 °F 94% 30.02 in 3.0 mi Calm Calm - N/A   Overcast
12:50 AM 50.0 °F 48.2 °F 94% 30.02 in 2.0 mi Calm Calm - N/A   Overcast
12:53 AM 50.0 °F 48.9 °F 96% 30.01 in 2.0 mi Calm Calm - N/A   Overcast
1:16 AM 50.0 °F 48.2 °F 94% 30.02 in 1.2 mi Calm Calm - N/A   Overcast
1:35 AM 50.0 °F 48.2 °F 94% 30.03 in 2.0 mi Calm Calm - N/A   Overcast
1:53 AM 50.0 °F 48.9 °F 96% 30.01 in 1.5 mi Calm Calm - N/A   Overcast
2:30 AM 48.2 °F 48.2 °F 100% 30.03 in 2.5 mi Calm Calm - N/A   Overcast
2:45 AM 48.2 °F 48.2 °F 100% 30.02 in 1.5 mi Calm Calm - N/A   Overcast
3:06 AM 48.2 °F 48.2 °F 100% 30.02 in 1.2 mi Calm Calm - N/A   Overcast
3:44 AM 48.2 °F 48.2 °F 100% 30.00 in 2.5 mi NW 3.5 mph - 0.00 in   Overcast
3:53 AM 50.0 °F 48.0 °F 93% 29.99 in 4.0 mi WNW 3.5 mph - 0.00 in   Overcast
4:06 AM 50.0 °F 48.2 °F 94% 30.01 in 2.5 mi WSW 4.6 mph - N/A   Overcast
4:44 AM 50.0 °F 48.2 °F 94% 30.00 in 1.5 mi Calm Calm - N/A   Overcast
4:53 AM 50.0 °F 48.9 °F 96% 29.99 in 1.8 mi SSW 3.5 mph - N/A   Overcast
5:11 AM 50.0 °F 48.2 °F 94% 30.01 in 3.0 mi SW 3.5 mph - N/A   Overcast
5:49 AM 48.2 °F 48.2 °F 100% 30.02 in 2.0 mi South 3.5 mph - N/A   Overcast
5:53 AM 48.9 °F 48.0 °F 97% 30.00 in 2.5 mi SSE 3.5 mph - N/A   Overcast
6:29 AM 50.0 °F 48.2 °F 94% 30.02 in 1.5 mi ESE 4.6 mph - N/A   Overcast
6:40 AM 50.0 °F 48.2 °F 94% 30.04 in 2.5 mi SW 4.6 mph - N/A   Overcast
6:53 AM 50.0 °F 48.9 °F 96% 30.03 in 1.5 mi SW 4.6 mph - 0.00 in Rain Light Rain
7:01 AM 48.2 °F 48.2 °F 100% 30.05 in 0.5 mi Calm Calm - 0.00 in Fog Fog
7:46 AM 50.0 °F 48.2 °F 94% 30.03 in 2.0 mi NNE 4.6 mph - 0.02 in Rain Light Rain
7:53 AM 50.0 °F 48.9 °F 96% 30.02 in 2.0 mi Calm Calm - 0.02 in Rain Light Rain
8:00 AM 50.0 °F 48.2 °F 94% 30.07 in 7.0 mi SW 5.8 mph - 0.00 in Rain Light Rain
8:07 AM 50.0 °F 48.2 °F 94% 30.06 in 2.0 mi Calm Calm - 0.00 in Rain Light Rain
8:53 AM 50.0 °F 50.0 °F 100% 30.03 in 2.0 mi Calm Calm - 0.09 in Rain Rain
9:49 AM 51.8 °F 50.0 °F 94% 30.09 in 3.0 mi SE 4.6 mph - 0.07 in Rain Rain
9:53 AM 51.1 °F 50.0 °F 96% 30.08 in 3.0 mi Calm Calm - 0.08 in Rain Rain
9:55 AM 51.8 °F 50.0 °F 94% 30.10 in 2.5 mi Calm Calm - 0.01 in Rain Rain
10:02 AM 51.8 °F 50.0 °F 94% 30.10 in 3.0 mi SSE 4.6 mph - 0.03 in Rain Rain
10:53 AM 53.1 °F 51.1 °F 93% 30.06 in 3.0 mi NNE 3.5 mph - 0.08 in Rain Light Rain
11:53 AM 54.0 °F 52.0 °F 93% 30.10 in 5.0 mi SSE 4.6 mph - 0.01 in   Mostly Cloudy
12:03 PM 53.6 °F 51.8 °F 94% 30.10 in 10.0 mi SE 6.9 mph - N/A   Mostly Cloudy
12:53 PM 54.0 °F 51.1 °F 90% 30.06 in 6.0 mi SE 3.5 mph - N/A   Overcast
1:53 PM 55.0 °F 50.0 °F 83% 30.04 in 10.0 mi SE 4.6 mph - N/A   Overcast
2:53 PM 55.9 °F 51.1 °F 84% 30.03 in 10.0 mi South 4.6 mph - N/A   Overcast
3:53 PM 55.9 °F 48.9 °F 77% 30.01 in 10.0 mi South 3.5 mph - N/A   Overcast
4:53 PM 55.9 °F 50.0 °F 80% 30.01 in 10.0 mi South 4.6 mph - N/A   Overcast
5:53 PM 55.0 °F 48.9 °F 80% 30.01 in 10.0 mi South 3.5 mph - N/A   Overcast
6:53 PM 55.0 °F 50.0 °F 83% 30.01 in 10.0 mi Calm Calm - N/A   Overcast
7:53 PM 55.0 °F 50.0 °F 83% 30.02 in 10.0 mi Calm Calm - N/A   Overcast
8:53 PM 55.0 °F 50.0 °F 83% 30.02 in 10.0 mi Calm Calm - N/A   Overcast
9:53 PM 54.0 °F 50.0 °F 86% 30.04 in 10.0 mi West 3.5 mph - N/A   Overcast
10:53 PM 55.0 °F 51.1 °F 86% 30.04 in 10.0 mi Calm Calm - N/A   Overcast
11:53 PM 55.0 °F 52.0 °F 89% 30.04 in 10.0 mi WNW 3.5 mph - N/A   Overcast